| time (UTC) | temp F | wind direction | speed knots | gust knots | rain 1hr in | rain 24hr in | rain mn in | humidity % | barometer mb |
| 20260506034504 | 70 | 286 | 0.0 | 0.0 | 0.00 | 0.00 | 0.00 | 34 | 1001.9 |
| 20260506033002 | 70 | 286 | 0.0 | 0.0 | 0.00 | 0.00 | 0.00 | 35 | 1001.8 |
| 20260506031501 | 70 | 286 | 0.0 | 0.0 | 0.00 | 0.00 | 0.00 | 34 | 1001.7 |
| 20260506030000 | 70 | 286 | 0.0 | 0.0 | 0.00 | 0.00 | 0.00 | 35 | 1001.7 |
| 20260506024501 | 71 | 286 | 1.7 | 6.1 | 0.00 | 0.00 | 0.00 | 34 | 1001.6 |
| 20260506023109 | 71 | 286 | 5.2 | 8.7 | 0.00 | 0.00 | 0.00 | 33 | 1001.3 |
| 20260506021621 | 72 | 279 | 6.1 | 9.6 | 0.00 | 0.00 | 0.00 | 32 | 1001.3 |
| 20260506020058 | 73 | 285 | 7.8 | 12.2 | 0.00 | 0.00 | 0.00 | 31 | 1001.2 |
| 20260506014558 | 73 | 284 | 10.4 | 15.6 | 0.00 | 0.00 | 0.00 | 31 | 1000.9 |
| 20260506013108 | 74 | 281 | 11.3 | 16.5 | 0.00 | 0.00 | 0.00 | 30 | 1000.8 |
| 20260506011658 | 75 | 280 | 13.9 | 24.3 | 0.00 | 0.00 | 0.00 | 29 | 1000.7 |
| 20260506010059 | 76 | 272 | 20.9 | 28.7 | 0.00 | 0.00 | 0.00 | 28 | 1000.6 |
| 20260506004556 | 76 | 276 | 17.4 | 25.2 | 0.00 | 0.00 | 0.00 | 28 | 1000.6 |
| 20260506003057 | 76 | 273 | 19.1 | 27.8 | 0.00 | 0.00 | 0.00 | 28 | 1000.4 |
| 20260506001557 | 76 | 265 | 13.0 | 22.6 | 0.00 | 0.00 | 0.00 | 29 | 1000.5 |
| 20260506000055 | 76 | 241 | 20.9 | 26.9 | 0.00 | 0.00 | 0.00 | 29 | 1000.4 |
| 20260505234554 | 76 | 245 | 20.9 | 28.7 | 0.00 | 0.00 | 0.00 | 29 | 1000.6 |
| 20260505233058 | 76 | 266 | 22.6 | 29.5 | 0.00 | 0.00 | 0.00 | 29 | 1000.6 |
| 20260505231607 | 76 | 254 | 25.2 | 36.5 | 0.00 | 0.00 | 0.00 | 28 | 1000.5 |
| 20260505230051 | 76 | 290 | 21.7 | 29.5 | 0.00 | 0.00 | 0.00 | 28 | 1000.6 |
| 20260505224554 | 76 | 275 | 16.5 | 25.2 | 0.00 | 0.00 | 0.00 | 29 | 1000.6 |
| 20260505223050 | 76 | 260 | 13.9 | 26.9 | 0.00 | 0.00 | 0.00 | 30 | 1000.7 |
| 20260505221550 | 76 | 288 | 17.4 | 28.7 | 0.00 | 0.00 | 0.00 | 29 | 1000.8 |
| 20260505220057 | 76 | 277 | 24.3 | 32.2 | 0.00 | 0.00 | 0.00 | 29 | 1000.9 |
| 20260505214555 | 78 | 290 | 19.1 | 27.8 | 0.00 | 0.00 | 0.00 | 27 | 1000.7 |
| 20260505213043 | 78 | 250 | 15.6 | 29.5 | 0.00 | 0.00 | 0.00 | 26 | 1000.5 |
| 20260505211538 | 78 | 276 | 18.2 | 24.3 | 0.00 | 0.00 | 0.00 | 27 | 1000.8 |
| 20260505210034 | 77 | 252 | 14.8 | 22.6 | 0.00 | 0.00 | 0.00 | 28 | 1001.0 |
| 20260505204531 | 76 | 242 | 11.3 | 19.1 | 0.00 | 0.00 | 0.00 | 29 | 1001.2 |
| 20260505203047 | 75 | 229 | 13.9 | 19.1 | 0.00 | 0.00 | 0.00 | 29 | 1001.4 |
| 20260505201532 | 75 | 236 | 13.0 | 19.1 | 0.00 | 0.00 | 0.00 | 29 | 1001.5 |
| 20260505200025 | 74 | 222 | 12.2 | 17.4 | 0.00 | 0.00 | 0.00 | 28 | 1001.5 |
| 20260505194523 | 74 | 230 | 10.4 | 18.2 | 0.00 | 0.00 | 0.00 | 28 | 1001.4 |
| 20260505193030 | 73 | 246 | 12.2 | 16.5 | 0.00 | 0.00 | 0.00 | 28 | 1001.6 |
| 20260505191522 | 73 | 219 | 11.3 | 15.6 | 0.00 | 0.00 | 0.00 | 29 | 1001.8 |
| 20260505190027 | 73 | 242 | 11.3 | 16.5 | 0.00 | 0.00 | 0.00 | 29 | 1001.7 |
| 20260505184525 | 74 | 225 | 13.9 | 18.2 | 0.00 | 0.00 | 0.00 | 28 | 1001.8 |
| 20260505183021 | 73 | 236 | 7.8 | 12.2 | 0.00 | 0.00 | 0.00 | 31 | 1001.9 |
| 20260505181519 | 73 | 223 | 6.1 | 10.4 | 0.00 | 0.00 | 0.00 | 33 | 1002.1 |
| 20260505180019 | 73 | 223 | 10.4 | 13.9 | 0.00 | 0.00 | 0.00 | 32 | 1002.2 |
| 20260505174526 | 73 | 222 | 10.4 | 14.8 | 0.00 | 0.00 | 0.00 | 32 | 1002.3 |
| 20260505173015 | 73 | 214 | 6.1 | 11.3 | 0.00 | 0.00 | 0.00 | 32 | 1002.1 |
| 20260505171513 | 73 | 248 | 7.8 | 12.2 | 0.00 | 0.00 | 0.00 | 32 | 1002.3 |
| 20260505170016 | 72 | 206 | 2.6 | 6.1 | 0.00 | 0.00 | 0.00 | 31 | 1002.3 |
| 20260505164508 | 71 | 206 | 0.9 | 5.2 | 0.00 | 0.00 | 0.00 | 31 | 1002.4 |
| 20260505163007 | 71 | 206 | 1.7 | 6.1 | 0.00 | 0.00 | 0.00 | 34 | 1002.6 |
| 20260505161503 | 71 | 206 | 0.0 | 0.9 | 0.00 | 0.00 | 0.00 | 32 | 1002.5 |
| 20260505153101 | 70 | 206 | 0.0 | 0.0 | 0.00 | 0.00 | 0.00 | 33 | 1002.4 |
| 20260505151558 | 69 | 206 | 0.0 | 0.0 | 0.00 | 0.00 | 0.00 | 38 | 1002.6 |
| 20260505124524 | 65 | 281 | 0.0 | 6.1 | 0.00 | 0.00 | 0.00 | 39 | 1001.1 |
| 20260505123021 | 64 | 281 | 6.1 | 7.8 | 0.00 | 0.00 | 0.00 | 43 | 1001.2 |
| 20260505121520 | 64 | 281 | 0.0 | 3.5 | 0.00 | 0.00 | 0.00 | 41 | 1000.7 |
| 20260505120020 | 64 | 281 | 0.0 | 3.5 | 0.00 | 0.00 | 0.00 | 42 | 1000.6 |
| 20260505114519 | 65 | 281 | 0.0 | 0.0 | 0.00 | 0.00 | 0.00 | 38 | 1000.3 |
| 20260505113021 | 67 | 281 | 1.7 | 7.8 | 0.00 | 0.00 | 0.00 | 35 | 1000.4 |
| 20260505111517 | 67 | 281 | 5.2 | 7.8 | 0.00 | 0.00 | 0.00 | 34 | 1000.3 |
| 20260505101518 | 67 | 270 | 3.5 | 7.0 | 0.00 | 0.00 | 0.00 | 36 | 1000.2 |
| 20260505100019 | 67 | 236 | 3.5 | 5.2 | 0.00 | 0.00 | 0.00 | 36 | 1000.3 |
| 20260505094511 | 66 | 236 | 0.0 | 0.9 | 0.00 | 0.00 | 0.00 | 38 | 1000.5 |
| 20260505093015 | 65 | 236 | 0.0 | 0.0 | 0.00 | 0.00 | 0.00 | 40 | 1000.6 |
| 20260505091508 | 65 | 236 | 0.0 | 0.0 | 0.00 | 0.00 | 0.00 | 40 | 1000.4 |
| 20260505090007 | 66 | 236 | 0.0 | 0.0 | 0.00 | 0.00 | 0.00 | 40 | 1000.4 |
| 20260505084508 | 66 | 236 | 0.0 | 6.1 | 0.00 | 0.00 | 0.00 | 38 | 1000.4 |
| 20260505083007 | 66 | 236 | 5.2 | 7.0 | 0.00 | 0.00 | 0.00 | 39 | 1000.5 |
| 20260505081505 | 66 | 236 | 4.3 | 8.7 | 0.00 | 0.00 | 0.00 | 39 | 1000.8 |
| 20260505080002 | 66 | 249 | 7.8 | 9.6 | 0.00 | 0.00 | 0.00 | 40 | 1000.7 |
| 20260505074557 | 67 | 279 | 5.2 | 7.8 | 0.00 | 0.00 | 0.00 | 38 | 1000.7 |
| 20260505073058 | 68 | 281 | 7.0 | 7.8 | 0.00 | 0.00 | 0.00 | 38 | 1000.9 |
| 20260505071556 | 68 | 282 | 5.2 | 7.0 | 0.00 | 0.00 | 0.00 | 37 | 1001.0 |
| 20260505070053 | 68 | 282 | 3.5 | 6.1 | 0.00 | 0.00 | 0.00 | 39 | 1000.9 |
| 20260505064550 | 67 | 282 | 0.0 | 0.0 | 0.00 | 0.00 | 0.00 | 40 | 1000.9 |
| 20260505063047 | 68 | 282 | 0.0 | 0.0 | 0.00 | 0.00 | 0.00 | 37 | 1000.9 |
| 20260505061547 | 69 | 282 | 0.0 | 3.5 | 0.00 | 0.00 | 0.00 | 37 | 1001.1 |
| 20260505060040 | 69 | 282 | 0.9 | 3.5 | 0.00 | 0.00 | 0.00 | 36 | 1001.2 |
| 20260505054544 | 68 | 282 | 5.2 | 6.1 | 0.00 | 0.00 | 0.00 | 37 | 1001.4 |
| 20260505053045 | 68 | 282 | 0.0 | 4.3 | 0.00 | 0.00 | 0.00 | 38 | 1001.6 |
| 20260505051539 | 69 | 282 | 0.0 | 2.6 | 0.00 | 0.00 | 0.00 | 35 | 1001.4 |
| 20260505041537 | 71 | 283 | 1.7 | 3.5 | 0.00 | 0.00 | 0.00 | 30 | 1001.7 |
| 20260505040037 | 71 | 283 | 0.0 | 3.5 | 0.00 | 0.00 | 0.00 | 30 | 1001.7 |